Location: Ladrillo (historical)
(32.8195°N, 117.2231°W)
Time: 16:42:45
(UTC+00:00)

Tiros 1 despin weight - Visible Passes

Search period start: 27 February 2021 00:00
Search period end: 09 March 2021 00:00
Orbit: 593 x 642 km, 48.2° (Epoch: 26 February)

Date Brightness Start Highest point End Pass type
(mag) Time Alt. Az. Time Alt. Az. Time Alt. Az.
27 Feb ? 12:22:49 12° N 12:23:58 13° N 12:26:00 10° NNE visible
28 Feb ? 12:38:25 11° NNW 12:40:56 15° NNE 12:43:44 10° NE visible
01 Mar ? 12:54:10 10° NNW 12:57:47 21° NNE 13:01:23 10° ENE visible
02 Mar ? 11:32:45 13° NNE 11:32:45 13° NNE 11:34:05 10° NE visible
02 Mar ? 13:10:13 10° NW 13:14:28 33° NNE 13:18:43 10° E visible
03 Mar ? 11:48:32 17° NNE 11:48:42 17° NNE 11:51:50 10° ENE visible
03 Mar ? 13:26:22 10° NW 13:31:00 60° NE 13:35:37 10° ESE visible
04 Mar ? 12:04:25 23° N 12:05:29 25° NNE 12:09:22 10° E visible
04 Mar ? 13:42:42 10° NW 13:47:22 68° SW 13:52:00 10° SE visible
05 Mar ? 12:20:26 30° NNW 12:22:06 41° NNE 12:26:33 10° ESE visible
06 Mar ? 10:59:30 12° ENE 10:59:30 12° ENE 10:59:53 10° ENE visible
06 Mar ? 12:36:35 34° NW 12:38:34 79° NE 12:43:15 10° SE visible
07 Mar ? 11:15:48 18° ENE 11:15:48 18° ENE 11:17:18 10° E visible
07 Mar ? 12:52:54 30° WNW 12:54:52 50° SW 12:59:23 10° SSE visible
08 Mar ? 11:32:16 24° ESE 11:32:16 24° ESE 11:34:17 10° ESE visible
08 Mar ? 13:09:22 19° W 13:11:02 23° SW 13:14:44 10° S visible
